Time,TemperatureF,DewpointF,PressureIn,WindDirection,WindDirectionDegrees,WindSpeedMPH,WindSpeedGustMPH,Humidity,HourlyPrecipIn,Conditions,Clouds,dailyrainin,SoftwareType,DateUTC
2013-06-22 11:02:00,82.0,74.0,30.08,SW,219,1.0,4.0,76,0.00,,,0.00,,2013-06-22 15:02:00,
2013-06-22 11:12:00,83.0,73.0,30.07,SW,228,2.0,7.0,72,0.00,,,0.00,,2013-06-22 15:12:00,
2013-06-22 11:34:00,84.0,73.0,30.06,SSE,147,2.0,7.0,69,0.00,,,0.00,,2013-06-22 15:34:00,
2013-06-22 11:43:00,84.0,71.0,30.05,WSW,244,2.0,7.0,66,0.00,,,0.00,,2013-06-22 15:43:00,
2013-06-22 11:53:00,85.0,73.0,30.06,West,263,2.0,9.0,68,0.00,,,0.00,,2013-06-22 15:53:00,
2013-06-22 12:02:00,85.0,73.0,30.06,West,263,2.0,9.0,68,0.00,,,0.00,,2013-06-22 16:02:00,
2013-06-22 12:12:00,86.0,74.0,30.07,SSW,201,1.0,7.0,67,0.00,,,0.00,,2013-06-22 16:12:00,
2013-06-22 12:22:00,86.0,74.0,30.07,WSW,245,3.0,11.0,67,0.00,,,0.00,,2013-06-22 16:22:00,
2013-06-22 12:34:00,86.0,74.0,30.07,WSW,245,3.0,11.0,67,0.00,,,0.00,,2013-06-22 16:34:00,
2013-06-22 12:43:00,86.0,74.0,30.07,WSW,248,3.0,9.0,68,0.00,,,0.00,,2013-06-22 16:43:00,
2013-06-22 12:52:00,86.0,74.0,30.06,West,276,2.0,7.0,68,0.00,,,0.00,,2013-06-22 16:52:00,
2013-06-22 13:02:00,86.0,74.0,30.06,West,276,2.0,7.0,68,0.00,,,0.00,,2013-06-22 17:02:00,
2013-06-22 13:11:00,87.0,74.0,30.06,South,181,2.0,7.0,66,0.00,,,0.00,,2013-06-22 17:11:00,
2013-06-22 13:22:00,87.0,75.0,30.06,SSW,200,1.0,5.0,67,0.00,,,0.00,,2013-06-22 17:22:00,
2013-06-22 13:34:00,87.0,75.0,30.06,SSW,200,1.0,5.0,67,0.00,,,0.00,,2013-06-22 17:34:00,
2013-06-22 13:43:00,87.0,75.0,30.05,South,175,0.0,7.0,67,0.00,,,0.00,,2013-06-22 17:43:00,
2013-06-22 13:52:00,88.0,76.0,30.05,WSW,252,2.0,9.0,68,0.00,,,0.00,,2013-06-22 17:52:00,
2013-06-22 14:02:00,88.0,76.0,30.05,WSW,252,2.0,9.0,68,0.00,,,0.00,,2013-06-22 18:02:00,
2013-06-22 14:12:00,86.0,73.0,30.04,WSW,242,0.0,5.0,66,0.00,,,0.00,,2013-06-22 18:12:00,
2013-06-22 14:23:00,86.0,76.0,30.04,SW,224,2.0,7.0,72,0.00,,,0.00,,2013-06-22 18:23:00,
2013-06-22 14:34:00,86.0,76.0,30.04,SW,224,2.0,7.0,72,0.00,,,0.00,,2013-06-22 18:34:00,
2013-06-22 14:43:00,86.0,76.0,30.03,SSW,192,1.0,6.0,72,0.00,,,0.00,,2013-06-22 18:43:00,
2013-06-22 14:52:00,87.0,76.0,30.03,SSW,213,2.0,7.0,69,0.00,,,0.00,,2013-06-22 18:52:00,
2013-06-22 15:01:00,87.0,76.0,30.03,SSW,213,2.0,7.0,69,0.00,,,0.00,,2013-06-22 19:01:00,
2013-06-22 15:11:00,87.0,74.0,30.03,SW,221,4.0,11.0,65,0.00,,,0.00,,2013-06-22 19:11:00,
2013-06-22 15:22:00,86.0,74.0,30.03,SW,226,2.0,8.0,67,0.00,,,0.00,,2013-06-22 19:22:00,
2013-06-22 15:33:00,86.0,74.0,30.03,SW,226,2.0,8.0,67,0.00,,,0.00,,2013-06-22 19:33:00,
2013-06-22 15:43:00,87.0,75.0,30.01,South,175,1.0,6.0,67,0.00,,,0.00,,2013-06-22 19:43:00,
2013-06-22 15:53:00,86.0,74.0,30.01,SSW,205,3.0,8.0,67,0.00,,,0.00,,2013-06-22 19:53:00,
2013-06-22 16:02:00,86.0,74.0,30.01,SSW,205,3.0,8.0,67,0.00,,,0.00,,2013-06-22 20:02:00,
2013-06-22 16:11:00,87.0,75.0,29.99,SE,146,3.0,9.0,67,0.00,,,0.00,,2013-06-22 20:11:00,
2013-06-22 16:22:00,88.0,75.0,29.99,South,185,2.0,7.0,66,0.00,,,0.00,,2013-06-22 20:22:00,
2013-06-22 16:33:00,88.0,75.0,29.99,South,185,2.0,7.0,66,0.00,,,0.00,,2013-06-22 20:33:00,
2013-06-22 16:43:00,88.0,73.0,29.98,SSW,201,3.0,12.0,62,0.00,,,0.00,,2013-06-22 20:43:00,
2013-06-22 16:53:00,88.0,75.0,29.96,WSW,242,2.0,8.0,65,0.00,,,0.00,,2013-06-22 20:53:00,
2013-06-22 17:01:00,88.0,75.0,29.96,WSW,242,2.0,8.0,65,0.00,,,0.00,,2013-06-22 21:01:00,
2013-06-22 17:11:00,88.0,75.0,29.96,WSW,238,4.0,10.0,66,0.00,,,0.00,,2013-06-22 21:11:00,
2013-06-22 17:22:00,88.0,76.0,29.96,SW,221,3.0,13.0,67,0.00,,,0.00,,2013-06-22 21:22:00,
2013-06-22 17:34:00,88.0,76.0,29.96,SW,221,3.0,13.0,67,0.00,,,0.00,,2013-06-22 21:34:00,
2013-06-22 17:43:00,87.0,74.0,29.97,SSW,197,1.0,11.0,65,0.00,,,0.00,,2013-06-22 21:43:00,
2013-06-22 17:53:00,86.0,73.0,29.97,SW,215,0.0,8.0,66,0.00,,,0.00,,2013-06-22 21:53:00,
2013-06-22 18:02:00,86.0,73.0,29.97,SW,215,0.0,8.0,66,0.00,,,0.00,,2013-06-22 22:02:00,
2013-06-22 18:12:00,86.0,75.0,29.97,WSW,240,0.0,3.0,69,0.00,,,0.00,,2013-06-22 22:12:00,
2013-06-22 18:23:00,85.0,76.0,29.98,WNW,282,1.0,3.0,74,0.00,,,0.00,,2013-06-22 22:23:00,
2013-06-22 18:33:00,85.0,76.0,29.98,WNW,282,1.0,3.0,74,0.00,,,0.00,,2013-06-22 22:33:00,
2013-06-22 18:43:00,83.0,75.0,29.98,WSW,238,1.0,7.0,76,0.00,,,0.00,,2013-06-22 22:43:00,
2013-06-22 18:52:00,84.0,73.0,29.98,SW,225,2.0,8.0,70,0.00,,,0.00,,2013-06-22 22:52:00,
2013-06-22 19:01:00,84.0,73.0,29.98,SW,225,2.0,8.0,70,0.00,,,0.00,,2013-06-22 23:01:00,
2013-06-22 19:11:00,83.0,70.0,29.96,SSW,200,1.0,8.0,65,0.00,,,0.00,,2013-06-22 23:11:00,
2013-06-22 19:22:00,82.0,69.0,29.98,WSW,249,1.0,6.0,65,0.00,,,0.00,,2013-06-22 23:22:00,
2013-06-22 19:34:00,82.0,69.0,29.98,WSW,249,1.0,6.0,65,0.00,,,0.00,,2013-06-22 23:34:00,
2013-06-22 19:43:00,82.0,72.0,29.98,WSW,240,1.0,5.0,72,0.00,,,0.00,,2013-06-22 23:43:00,
2013-06-22 19:52:00,82.0,70.0,29.98,WSW,246,0.0,5.0,67,0.00,,,0.00,,2013-06-22 23:52:00,
2013-06-22 20:01:00,82.0,70.0,29.98,WSW,246,0.0,5.0,67,0.00,,,0.00,,2013-06-23 00:01:00,
2013-06-22 20:11:00,81.0,70.0,29.99,WNW,288,0.0,6.0,70,0.00,,,0.00,,2013-06-23 00:11:00,
2013-06-22 20:22:00,81.0,69.0,30.00,SW,234,1.0,7.0,68,0.00,,,0.00,,2013-06-23 00:22:00,
2013-06-22 20:33:00,81.0,69.0,30.00,SW,234,1.0,7.0,68,0.00,,,0.00,,2013-06-23 00:33:00,
2013-06-22 20:42:00,80.0,69.0,30.00,West,276,1.0,4.0,69,0.00,,,0.00,,2013-06-23 00:42:00,
2013-06-22 20:53:00,80.0,69.0,30.00,West,276,1.0,4.0,69,0.00,,,0.00,,2013-06-23 00:53:00,
2013-06-22 21:01:00,80.0,69.0,30.00,West,276,1.0,4.0,69,0.00,,,0.00,,2013-06-23 01:01:00,
2013-06-22 21:11:00,80.0,69.0,30.02,WSW,245,1.0,4.0,69,0.00,,,0.00,,2013-06-23 01:11:00,
2013-06-22 21:22:00,80.0,69.0,30.02,WSW,245,1.0,4.0,69,0.00,,,0.00,,2013-06-23 01:22:00,
2013-06-22 21:32:00,80.0,69.0,30.02,WSW,245,1.0,4.0,69,0.00,,,0.00,,2013-06-23 01:32:00,
2013-06-22 21:42:00,80.0,69.0,30.02,WSW,245,1.0,4.0,69,0.00,,,0.00,,2013-06-23 01:42:00,
2013-06-22 21:52:00,80.0,69.0,30.02,WSW,245,1.0,4.0,69,0.00,,,0.00,,2013-06-23 01:52:00,
2013-06-22 23:31:00,78.0,69.0,30.02,WSW,246,0.0,0.0,73,0.00,,,0.00,,2013-06-23 03:31:00,
2013-06-22 23:41:00,78.0,69.0,30.02,WSW,246,0.0,0.0,73,0.00,,,0.00,,2013-06-23 03:41:00,
2013-06-22 23:52:00,78.0,69.0,30.02,WSW,246,0.0,0.0,73,0.00,,,0.00,,2013-06-23 03:52:00,